Regional Weather Roundup
Issued by NWS Mobile, AL

Home | Current Version | Previous Version | Text Only | Print | Product List | Glossary On
Versions: 1 2 3 4 5 6 7 8 9 10 11 12 13 14 15 16 17 18 19 20 21 22 23 24 25 26 27 28 29 30 31 32 33 34 35 36 37 38 39 40 41 42 43 44 45 46 47 48 49 50
355
ASUS44 KMOB 192112
RWRMOB
REGIONAL WEATHER ROUNDUP
NATIONAL WEATHER SERVICE MOBILE AL
400 PM CDT SAT AUG 19 2017

NOTE: "FAIR" INDICATES FEW OR NO CLOUDS BELOW 12,000 FEET WITH NO
      SIGNIFICANT WEATHER AND/OR OBSTRUCTIONS TO VISIBILITY.

  * THESE STATIONS ARE PART OF THE UNIVERSITY OF SOUTH ALABAMA
    MESONET AND ARE NOT UNDER NWS OR FAA QUALITY CONTROL.

ALZ061>064-192200-
COASTAL ALABAMA

CITY           SKY/WX    TMP DP  RH WIND       PRES   REMARKS
MOBILE REG APT TSTM      75  73  94 CALM      30.00R
BROOKLEY FIELD TSTM      83  73  72 NW14G22   29.99R
USA CAMPUS*      N/A     73  72  94 CALM      29.99S
DOG RIVER*     NOT AVBL


CITY           SKY/WX    TMP DP  RH WIND       PRES   REMARKS
GULF SHORES    SUNNY     88  78  70 SW6       29.95S HX 101

$$

ALZ051>060-192200-
INTERIOR SOUTHWEST AND SOUTH CENTRAL ALABAMA

CITY           SKY/WX    TMP DP  RH WIND       PRES   REMARKS
GREENVILLE     MOSUNNY   93  69  45 N5        29.96S HX  98
EVERGREEN      MOSUNNY   91  73  55 NE5       29.96F HX  99
ATMORE*        NOT AVBL
ANDALUSIA/OPP  SUNNY     96  68  39 NW5       29.96S HX 101
ANDALUSIA*       N/A     91  66  43 N5        29.97F
FLORALA APT      N/A    N/A N/A N/A MISG      29.97F
FLORALA*         N/A     91  66  43 CALM      30.63S

$$

FLZ001>006-192200-
WESTERN FLORIDA PANHANDLE

CITY           SKY/WX    TMP DP  RH WIND       PRES   REMARKS
PENSACOLA      MOSUNNY   92  76  59 S12       29.94F HX 104
NAS PENSACOLA  PTSUNNY   89  77  67 S10       29.94S HX 101
MILTON         MOSUNNY   93  73  52 NW5       29.95S HX 102
WHTNG S FIELD  MOSUNNY   96  72  45 NE7       29.94F HX 104


CITY           SKY/WX    TMP DP  RH WIND       PRES   REMARKS
JAY*             N/A     90  70  51 N5        29.95S HX  95
DUKE FIELD     SUNNY     96  64  34 N8        29.94F HX  97
CRESTVIEW      SUNNY     96  63  33 VRB7      29.96F HX  97
VALPARAISO     MOSUNNY   90  76  62 S9        29.94F HX 101
DESTIN         SUNNY     93  75  55 S8        29.94F HX 104

$$

MSZ076-079-192200-
INTERIOR SOUTHEAST MISSISSIPPI

CITY           SKY/WX    TMP DP  RH WIND       PRES   REMARKS
LEAKESVILLE*   NOT AVBL
AGRICOLA*        N/A     72  70  94 NW5       30.01

$$

MARINE OBSERVATIONS

STATION/POSITION TIME  TEMP    WIND        PRES    WAVE
                       AIR SEA DIR/SP/G            HT/PER
                 (UTC) (F)     (DEG/KT/KT) (MB)    (FT/S)
PASCAGOULA       2048   83     350/  5/  6 1014.8S
PETIT BOIS ISLND 2048   83     330/  4/  5 1015.4F
GRAND BAY        1945   87     220/  7     1016.0S
KATRINA CUT      2030   85     300/ 12     1014.6F
CEDAR POINT      2030   86     300/ 12     1014.6F
E DAUPHIN ISLAND 2000   87     230/  7/  8 1014.1F
MIDDLE BAY LIGHT 2030   87     220/  7     1014.6S
USCG MOBILE BAY  2048   82 85  290/  9/ 14 1015.8R
STATE DOCKS      2048   85 87              1014.9R
MEAHER PARK      2030   92      30/  2     1014.6R
WEEKS BAY        1945   92                   N/A
FORT MORGAN      2048   86     290/ 10/ 11   N/A
12 S ORANGE BCH  2050   87 89  150/  6/  8 1014.0F   1
PENSACOLA BAY    2048   90 87              1014.3F
64 S DAUPHIN ISL 2100   86 88   CALM  /  4 1014.5
67 S FORT MORGAN 2030   86        CALM     1014.6F

$$

SELECTED LOCATIONS ACROSS THE REGION

CITY           SKY/WX    TMP DP  RH WIND       PRES   REMARKS
NEW ORLEANS    PTSUNNY   96  72  45 N8        29.93F HX 104
GULFPORT       CLOUDY    83  76  79 NW9       29.98R
PASCAGOULA AP  LGT RAIN  79  72  79 N12G23    30.00R
PASCAGOULA*      N/A     81  73  78 N5          N/A
HATTIESBURG    PTSUNNY   89  77  67 W7        29.96R THUNDER HX 101
LAUREL         TSTM      77  73  87 SW6       29.97R
MERIDIAN       MOSUNNY   92  77  61 E10G23    29.95F HX 105
JACKSON        MOSUNNY   93  76  57 N9        29.94F HX 105
MONTGOMERY     SUNNY     95  69  42 NE3       29.96S HX 100
TROY           SUNNY     92  69  47 E6        29.97F HX  97
ASHFORD*         N/A     91  66  43 N5        29.97F
DOTHAN         MOSUNNY   93  70  46 NE8       29.99F HX  99
PANAMA CITY    PTSUNNY   89  77  67 S9        29.95S HX 101

$$





USA.gov is the U.S. government's official web portal to all federal, state and local government web resources and services.